Location: La Savane
(18.0962°N, 63.0646°W)
Time: 07:48:22
(UTC+00:00)

Atlas Centaur 2 - Pass Details

Date: 29 October 2020
Orbit: 459 x 1309 km, 30.4° (Epoch: 28 November)

Event Time Altitude Azimuth Distance (km) Brightness Sun altitude
Rises 22:20:44 0° 285° (WNW) 4,050 7.0 -10.0°
Reaches altitude 10° 22:23:47 10° 294° (WNW) 3,177 6.1 -10.7°
Maximum altitude 22:31:06 35° 357° (N) 1,970 4.0 -12.4°
Enters shadow 22:37:33 14° 55° (NE) 2,991 4.5 -13.9°
